Location: Hoover
(45.1124°N, 103.2678°W)
Time: 19:24:17
(UTC+00:00)

Envisat - Visible Passes

Search period start: 29 November 2020 00:00
Search period end: 09 December 2020 00:00
Orbit: 764 x 766 km, 98.1° (Epoch: 29 November)

Date Brightness Start Highest point End Pass type
(mag) Time Alt. Az. Time Alt. Az. Time Alt. Az.
29 Nov 5.8 01:10:22 10° SW 01:13:53 19° W 01:17:26 10° NW visible
29 Nov 5.8 11:37:27 10° NE 11:40:46 17° E 11:44:04 10° SE visible
29 Nov 3.0 13:15:12 10° N 13:20:14 63° WNW 13:25:14 10° SSW visible
30 Nov 4.5 00:32:02 10° SSW 00:36:47 39° W 00:41:33 10° NNW visible
30 Nov 3.5 12:38:23 10° NNE 12:43:26 62° E 12:48:28 10° S visible
30 Nov 3.1 23:54:47 10° SSE 23:59:52 84° WSW 00:04:59 10° NNW visible
01 Dec 6.4 01:38:40 10° W 01:39:39 10° W 01:40:38 10° WNW visible
01 Dec 5.0 12:02:01 10° NE 12:06:26 29° E 12:10:49 10° SSE visible
02 Dec 5.5 00:58:22 10° SW 01:02:23 23° W 01:06:26 10° NW visible
02 Dec 6.1 11:26:44 10° ENE 11:29:14 14° E 11:31:44 10° ESE visible
02 Dec 2.9 13:03:46 10° N 13:08:52 79° WNW 13:13:56 10° SSW visible
03 Dec 4.1 00:20:26 10° S 00:25:20 49° W 00:30:17 10° NNW visible
03 Dec 4.0 12:27:04 10° NNE 12:32:01 49° E 12:36:55 10° S visible
03 Dec 3.0 23:43:25 10° SSE 23:48:29 78° ENE 23:53:35 10° N visible
04 Dec 6.1 01:25:35 10° WSW 01:28:06 14° W 01:30:37 10° WNW visible
04 Dec 5.4 11:50:55 10° NE 11:54:57 23° E 11:58:58 10° SE visible
04 Dec 3.3 13:29:20 10° N 13:34:11 46° WNW 13:39:01 10° SW visible
05 Dec 5.1 00:46:31 10° SSW 00:50:54 29° W 00:55:19 10° NW visible
05 Dec 6.3 11:16:44 10° ENE 11:17:41 10° E 11:18:39 10° E visible
05 Dec 3.1 12:52:22 10° NNE 12:57:29 84° ESE 13:02:34 10° SSW visible
06 Dec 3.6 00:08:54 10° S 00:13:55 62° W 00:18:58 10° NNW visible
06 Dec 4.4 12:15:48 10° NNE 12:20:34 39° E 12:25:18 10° SSE visible
07 Dec 5.9 01:13:16 10° SW 01:16:34 17° W 01:19:54 10° NW visible
07 Dec 5.7 11:39:54 10° NE 11:43:27 19° E 11:46:58 10° SE visible
07 Dec 3.0 13:17:51 10° N 13:22:51 58° WNW 13:27:49 10° SSW visible
08 Dec 4.7 00:34:47 10° SSW 00:39:26 36° W 00:44:08 10° NNW visible
08 Dec 3.4 12:41:00 10° NNE 12:46:04 67° E 12:51:08 10° S visible
